1295398230442,0.000143744
1295398290442,0.000143160
1295398350442,0.000142260
1295398410442,0.000144071
1295398470442,0.000144568
1295401830452,0.000144675
1295401890452,0.000142880
1295401950452,0.000143306
1295402010452,0.000143495
1295402070452,0.000142126
1295405430463,0.000142911
1295405490463,0.000143896
1295405550463,0.000143306
1295405610463,0.000143177
1295405670463,0.000143942
1295409030473,0.000143356
1295409090473,0.000143800
1295409150473,0.000143740
1295409210473,0.000143450
1295409270473,0.000144046
1295412630484,0.000142174
1295412690484,0.000143159
1295412750484,0.000143121
1295412810484,0.000142469
1295412870484,0.000141825
1295416230494,0.000142863
1295416290494,0.000142108
1295416350494,0.000141077
1295416410494,0.000141643
1295416470494,0.000142355
1295419830505,0.000140609
1295419890505,0.000140243
1295419950505,0.000142098
1295420010505,0.000140358
1295420070505,0.000141677
1295423430516,0.000140582
1295423490516,0.000140696
1295423550516,0.000140480
1295423610516,0.000140822
1295423670516,0.000141071
1295427030527,0.000140639
1295427090527,0.000140654
1295427150527,0.000140303
1295427210527,0.000139983
1295427270527,0.000140472
1295430630539,0.000139320
1295430690539,0.000140701
1295430750539,0.000141217
1295430810539,0.000140044
1295430870539,0.000139310
1295434230550,0.000139870
1295434290550,0.000139264
1295434350550,0.000139996
1295434410550,0.000139803
1295434470550,0.000139537
1295437830562,0.000140340
1295437890562,0.000139765
1295437950562,0.000141343
1295438010562,0.000140341
1295438070562,0.000139201
1295441430574,0.000138580
1295441490574,0.000139621
1295441550574,0.000139924
1295441610574,0.000139863
1295441670574,0.000140882
1295445030585,0.000140203
1295445090585,0.000141104
1295445150585,0.000141528
1295445210585,0.000140789
1295445270585,0.000139802
1295445330585,0.000140274
1295445390585,0.000141800
1295445450585,0.000139190
1295445510585,0.000140172
1295445570585,0.000139793
1295445630597,0.000140192
1295445690597,0.000140848
1295445750597,0.000139526
1295445810597,0.000139343
1295445870597,0.000139768
1295445930597,0.000140108
1295445990597,0.000139966
1295446050597,0.000140934
1295446110597,0.000138901
1295446170596,0.000139076
1295446230596,0.000139341
1295446290597,0.000140047
1295446350597,0.000139828
1295446410597,0.000139416
1295446470597,0.000140619
1295446530597,0.000138127
1295446590597,0.000138949
1295446650597,0.000140192
1295446710597,0.000139811
1295446770597,0.000138891
1295446830597,0.000138111
1295446890597,0.000139466
1295446950597,0.000139975
1295447010597,0.000138770
1295447070597,0.000138556
1295447130597,0.000139554
1295447190597,0.000139282
1295447250597,0.000138434
1295447310597,0.000138810
1295447370597,0.000139474
1295447430597,0.000139187
1295447490597,0.000139189
1295447550596,0.000139351
1295447610597,0.000140626
1295447670597,0.000140181
1295447730597,0.000140555
1295447790597,0.000139305
1295447850597,0.000139248
1295447910597,0.000141521
1295447970597,0.000139504
1295448030597,0.000139004
1295448090597,0.000138985
1295448150597,0.000140977
1295448210597,0.000139564
1295448270597,0.000137690
1295448330597,0.000139460
1295448390597,0.000138689
1295448450597,0.000138799
1295448510597,0.000139396
1295448570597,0.000139702
1295448630597,0.000138671
1295448690597,0.000139735
1295448750597,0.000139726
1295448810597,0.000139143
1295448870596,0.000139888
1295448930596,0.000139834
1295448990597,0.000139058
1295449050597,0.000139484
1295449110597,0.000139924
1295449170597,0.000138914
1295449230608,0.000140124
1295449290608,0.000138846
1295449350608,0.000139057
1295449410608,0.000139666
1295449470608,0.000140203
1295449530608,0.000138642
1295449590608,0.000140400
1295449650608,0.000140770
1295449710608,0.000139792
1295449770608,0.000140149
1295449830608,0.000140214
1295449890608,0.000139725
1295449950608,0.000139548
1295450010608,0.000139927
1295450070608,0.000139197
1295450130608,0.000139880
1295450190608,0.000139839
1295450250608,0.000139972
1295450310608,0.000139627
1295450370608,0.000138961
1295450430608,0.000139073
1295450490608,0.000139552
1295450550608,0.000140080
1295450610608,0.000139442
1295450670608,0.000141274
1295450730608,0.000140253
1295450790608,0.000139354
1295450850608,0.000140338
1295450910608,0.000139766
1295450970608,0.000140139
1295451030608,0.000139951
1295451090608,0.000139749
1295451150608,0.000140554
1295451210608,0.000140126
1295451270608,0.000140577
1295451330608,0.000140794
1295451390608,0.000139038
1295451450608,0.000140426
1295451510608,0.000140073
1295451570608,0.000139979
1295451630608,0.000139509
1295451690608,0.000140050
1295451750608,0.000139986
1295451810608,0.000139463
1295451870608,0.000138330
1295451930608,0.000139350
1295451990608,0.000139733
1295452050608,0.000140501
1295452110608,0.000139053
1295452170608,0.000140549
1295452230608,0.000140058
1295452290608,0.000139796
1295452350608,0.000139921
1295452410608,0.000139929
1295452470608,0.000139806
1295452530608,0.000139292
1295452590608,0.000140148
1295452650608,0.000140322
1295452710608,0.000139162
1295452770608,0.000139488
1295452830619,0.000140091
1295452890619,0.000140106
1295452950619,0.000139738
1295453010619,0.000139419
1295453070619,0.000140000
1295453130619,0.000140539
1295453190619,0.000140155
1295453250619,0.000140478
1295453310619,0.000139452
1295453370619,0.000141515
1295453430619,0.000139752
1295453490619,0.000139359
1295453550619,0.000138894
1295453610619,0.000139054
1295453670619,0.000139938
1295453730619,0.000139031
1295453790619,0.000139470
1295453850619,0.000140334
1295453910619,0.000139704
1295453970619,0.000139128
1295454030619,0.000139427
1295454090619,0.000139824
1295454150619,0.000140623
1295454210619,0.000141141
1295454270619,0.000139455
1295454330619,0.000139121
1295454390619,0.000140736
1295454450619,0.000140480
1295454510619,0.000140347
1295454570619,0.000140397
1295454630619,0.000140911
1295454690619,0.000139539
1295454750619,0.000141176
1295454810619,0.000140938
1295454870619,0.000140171
1295454930619,0.000139980
1295454990619,0.000140354
1295455050619,0.000140880
1295455110619,0.000139832
1295455170619,0.000139977
1295455230619,0.000140187
1295455290619,0.000139073
1295455350619,0.000138776
1295455410619,0.000139688
1295455470619,0.000140324
1295455530619,0.000140401
1295455590619,0.000140638
1295455650619,0.000139053
1295455710619,0.000140033
1295455770619,0.000138718
1295455830619,0.000139777
1295455890619,0.000139527
1295455950619,0.000140177
1295456010619,0.000139030
1295456070619,0.000139556
1295459430630,0.000141089
1295459490630,0.000140254
1295459550630,0.000139903
1295459610630,0.000139000
1295459670630,0.000139231
1295463030642,0.000140363
1295463090642,0.000139521
1295463150642,0.000140257
1295463210642,0.000139615
1295463270642,0.000139710
1295466630653,0.000140122
1295466690653,0.000139460
1295466750653,0.000140789
1295466810653,0.000140285
1295466870653,0.000139278
1295470230663,0.000139233
1295470290663,0.000140080
1295470350663,0.000139881
1295470410663,0.000139975
1295470470663,0.000141059
1295473830674,0.000141341
1295473890674,0.000140775
1295473950674,0.000140048
1295474010674,0.000140525
1295474070674,0.000139791
1295477430685,0.000141370
1295477490685,0.000140282
1295477550685,0.000140607
1295477610685,0.000141153
1295477670685,0.000140076
1295481030695,0.000142173
1295481090695,0.000141323
1295481150695,0.000141311
1295481210695,0.000142819
1295481270695,0.000141010
